Location: Lake Crest
(37.6062°N, 88.9176°W)
Time: 15:56:34
(UTC+00:00)

SL-4 R/B - Pass Details

Date: 15 December 2019
Orbit: 428 x 667 km, 51.6° (Epoch: 18 January)

Event Time Altitude Azimuth Distance (km) Brightness Sun altitude
Rises 00:44:34 0° 317° (NW) 2,597 5.9 -24.3°
Reaches altitude 10° 00:47:05 10° 334° (NNW) 1,757 4.7 -24.8°
Enters shadow 00:47:43 13° 341° (NNW) 1,584 4.4 -24.9°
